Tracking 22459 objects as of 3-Mar-2021
HD Live streaming from Space Station
objects crossing your sky now

BREEZE-M DEB

Track BREEZE-M DEB now!
10-day predictions


NORAD ID: 38563
Int'l Code: 2006-006DD
Perigee: 466.3 km
Apogee: 14,405.2 km
Inclination: 51.6 °
Period: 269.1 minutes
Semi major axis: 13806 km
RCS: 0.0157 m2 (small)
Launch date: February 28, 2006
Source: Commonwealth of Independent States (former USSR) (CIS)
Launch site: TYURATAM MISSILE AND SPACE COMPLEX (TTMTR)

Note: This is SATELLITE DEBRIS
aabbcc
Your satellite tracking list
Your tracking list is empty




NASA's NSSDC Master Catalog

Two Line Element Set (TLE):
1 38563U 06006DD  21061.54581639  .00000349  00000-0  42274-3 0  9996
2 38563  51.6476  86.9456 5047854  90.7893 324.8739  5.35138561245850
Source of the keplerian elements: AFSPC